Wind_Speed
37 41 44 45 46 46 46 45 44 43 43 43 44 44 41 42 44 44 43 44 44 43 43 43 44 43 43 42 42 42 42 42 43 43 44 43 42 41 41 40 39 39 37 36
32 35 38 41 44 45 45 44 43 43 43 43 43 43 41 41 44 45 45 45 45 45 45 45 46 46 46 45 45 44 45 45 46 46 46 46 46 45 45 45 44 41 39 38
27 29 32 36 38 41 42 41 41 41 42 42 43 42 40 40 42 44 45 45 45 46 46 46 47 48 48 48 47 48 48 49 49 50 50 49 49 49 48 47 45 43 42 42
26 26 28 29 31 33 35 37 37 38 39 40 41 40 35 37 39 41 42 43 43 44 44 45 46 47 48 48 49 49 50 51 52 53 53 52 51 50 49 47 47 46 46 46
26 25 26 26 27 29 29 30 31 33 35 36 35 36 28 31 33 35 35 37 39 40 42 43 44 45 47 48 48 49 50 51 53 55 56 56 55 54 52 51 50 50 49 49
25 25 25 26 26 27 26 26 27 27 29 29 27 29 25 25 28 30 32 34 36 38 40 41 42 44 45 47 48 50 51 52 54 55 57 58 58 57 56 54 53 52 52 51
24 23 24 24 25 25 24 24 25 25 25 24 22 24 23 22 24 28 30 32 34 36 38 40 42 43 45 47 50 52 53 55 57 59 60 60 61 61 60 58 57 56 55 53
23 23 23 23 23 23 23 24 24 23 22 20 19 20 21 21 23 25 29 31 33 35 37 40 42 45 47 49 52 54 56 59 61 63 64 65 65 65 65 64 63 61 58 56
23 23 23 22 22 22 22 22 22 21 20 19 18 18 20 21 22 24 26 29 31 34 37 39 42 45 47 50 53 55 58 60 63 65 67 68 69 69 69 69 68 66 63 61
21 21 21 21 21 21 21 21 21 20 18 17 15 16 19 21 23 24 25 27 29 32 35 38 41 44 47 49 52 55 58 60 63 65 67 69 70 71 72 72 71 70 68 65
18 19 19 19 19 19 19 19 18 17 16 14 14 16 18 20 21 22 24 26 28 31 34 37 39 42 45 48 50 53 56 59 61 63 65 67 68 70 71 71 71 71 70 68
16 16 17 16 16 16 16 16 16 16 14 13 14 16 17 18 18 19 21 24 28 30 33 35 37 39 42 45 47 50 53 56 58 61 62 63 63 65 67 68 68 69 69 68
14 14 14 15 14 14 14 15 15 14 13 13 14 16 15 14 15 18 21 24 26 28 31 32 34 36 39 41 44 47 49 51 52 53 54 55 57 58 60 62 63 64 64 64
12 13 13 13 12 12 13 13 13 13 13 13 13 14 12 12 14 17 20 23 25 27 28 29 31 33 36 39 41 42 42 41 40 40 41 42 45 48 51 54 56 58 58 59
12 12 11 11 12 12 12 13 13 13 12 12 11 11 11 12 14 16 19 21 24 25 25 27 28 30 33 35 36 36 34 31 28 27 28 31 34 39 42 45 47 49 51 51
12 12 11 11 11 12 13 13 12 12 12 11 11 10 10 11 13 16 19 21 22 23 24 25 25 27 29 32 33 32 28 24 21 18 18 20 23 27 30 33 35 37 39 41
12 12 12 12 12 13 13 13 12 12 12 12 11 10 9 10 12 15 18 20 21 22 22 23 23 23 25 27 29 28 24 20 16 13 11 12 15 19 20 22 24 27 29 31
13 13 13 13 13 14 13 13 13 13 13 13 12 10 9 10 12 14 17 19 21 20 21 21 21 21 23 24 24 24 22 18 14 10 6 5 7 10 14 17 18 20 22 24
15 15 15 15 15 14 14 14 14 15 15 14 12 10 9 10 12 15 17 19 20 19 19 19 19 19 20 20 20 20 19 17 16 11 6 3 3 7 9 12 15 17 19 21
17 17 16 16 15 16 15 15 16 16 15 14 12 10 9 10 13 15 17 18 18 19 18 18 18 16 17 17 18 17 17 17 17 15 12 9 9 7 7 8 10 13 15 16
18 18 17 17 16 16 16 16 17 17 15 14 12 11 11 11 13 15 16 17 17 18 18 17 16 15 14 14 15 15 14 15 15 15 13 11 8 6 6 6 6 7 10 12
20 19 19 18 18 17 17 17 17 17 16 14 13 12 12 13 14 14 15 16 16 16 16 15 14 14 13 12 12 12 13 14 14 14 12 9 7 5 4 2 1 2 5 8
21 20 20 19 19 18 18 18 18 17 16 16 15 14 14 14 14 14 15 15 15 14 14 13 13 12 12 11 11 11 11 12 12 12 13 12 10 8 6 5 4 4 6 9
22 22 21 20 20 20 20 19 19 18 17 17 16 16 15 15 14 14 14 14 13 13 13 12 12 11 10 10 10 11 11 11 11 11 11 10 10 9 8 8 8 9 11 14
23 23 22 21 21 21 21 21 20 20 19 19 18 18 17 17 16 15 15 14 13 13 12 12 11 10 9 9 9 9 10 10 10 11 11 11 11 11 11 11 12 14 15 17
23 22 22 21 22 22 22 24 23 23 22 21 20 19 19 18 17 17 16 15 14 14 13 12 11 10 9 9 9 9 10 11 11 12 12 13 13 13 14 15 16 17 18 20
Wind_Direction
208 211 214 218 222 225 227 230 232 234 235 234 234 235 234 237 243 246 249 252 254 256 258 258 258 258 257 256 255 255 255 255 255 255 256 257 257 258 258 258 258 258 260 263
204 207 210 215 220 224 228 231 234 237 238 238 238 239 241 242 245 249 251 253 256 257 259 259 259 260 260 259 259 258 257 257 256 255 255 256 256 256 256 256 257 258 260 262
203 204 208 214 219 224 229 233 237 240 242 243 243 243 247 249 250 251 253 255 257 258 260 261 261 262 262 262 261 260 259 258 257 257 256 255 254 255 255 257 258 259 259 259
198 201 205 210 216 222 227 232 237 241 244 246 247 249 250 253 253 254 255 257 258 260 261 262 263 264 264 264 263 263 262 261 260 259 258 257 256 255 255 255 255 254 254 255
194 195 197 202 209 217 222 228 233 238 243 247 249 253 248 251 255 255 256 257 259 261 262 263 263 265 266 266 266 265 265 264 263 262 261 259 258 257 256 255 254 255 255 256
192 192 195 199 206 213 218 224 229 234 240 245 247 253 249 247 251 254 256 256 258 260 261 263 264 265 266 267 267 267 266 265 264 263 262 261 260 259 258 257 255 255 255 255
190 194 197 200 206 211 215 220 226 232 238 243 244 249 250 244 243 247 252 255 258 261 264 266 267 268 269 269 269 269 268 267 266 264 263 262 260 259 258 257 256 255 254 255
193 198 202 205 210 211 215 221 228 233 237 240 238 242 247 245 243 246 252 257 261 265 268 270 271 272 272 271 271 270 269 267 266 264 263 261 260 259 258 256 255 254 253 253
200 204 207 210 213 217 220 224 229 233 233 234 234 238 245 249 252 254 258 263 267 270 272 273 274 275 275 274 273 272 270 268 266 264 263 261 259 258 257 255 254 253 252 252
203 208 211 214 216 218 221 223 225 227 228 228 231 239 248 254 261 265 270 272 275 276 277 279 279 280 279 278 276 274 272 270 267 265 262 260 258 256 255 253 253 252 252 251
205 209 212 213 213 212 213 215 219 223 226 230 235 245 251 257 264 271 276 280 283 284 285 286 287 287 286 285 283 281 278 274 270 267 263 260 257 255 253 252 251 250 250 250
202 205 205 204 203 202 204 208 214 222 229 240 248 255 255 263 270 275 282 287 290 292 294 295 295 295 294 292 291 288 285 280 275 270 265 260 256 253 251 249 249 248 248 248
195 194 192 191 193 195 200 209 220 231 240 247 254 259 262 269 276 285 293 298 300 301 301 302 303 303 303 303 302 299 294 288 280 272 266 260 254 251 249 248 247 246 246 247
190 188 190 189 193 202 212 223 232 240 247 250 253 259 267 276 287 297 304 307 307 307 307 308 310 312 312 313 312 309 305 297 286 275 267 259 252 248 247 246 245 245 244 245
192 193 197 200 206 216 227 234 240 244 246 245 243 252 269 283 292 299 305 309 312 314 316 317 318 320 321 323 323 321 316 309 297 282 269 259 252 247 245 245 244 243 242 243
200 204 209 214 220 230 238 243 243 244 238 229 232 245 265 281 296 305 312 317 320 322 323 324 325 326 329 333 334 332 330 322 312 297 278 262 252 247 243 242 241 241 240 241
213 218 223 229 235 240 245 245 244 235 222 221 229 244 264 287 304 315 322 325 327 328 329 330 330 332 335 340 343 345 345 341 332 314 287 266 252 241 235 231 230 231 233 235
226 231 235 239 243 245 242 240 234 224 220 221 230 243 266 290 308 322 328 332 334 333 334 335 337 338 342 345 348 352 356 359 357 349 327 277 243 224 214 214 218 222 223 228
233 238 241 243 244 243 238 232 224 219 222 225 234 249 273 298 314 324 331 335 336 337 339 340 341 343 347 352 357 1 8 15 20 23 31 62 159 186 189 193 197 203 209 218
239 241 244 243 240 237 231 226 221 222 226 229 241 259 280 299 315 323 329 335 337 338 340 342 344 345 350 358 4 9 18 28 33 40 51 68 83 104 136 167 186 198 210 218
239 239 241 240 237 234 228 223 221 225 229 236 248 265 284 297 310 320 326 332 336 338 341 343 346 347 349 357 7 17 27 30 31 37 50 63 76 94 126 152 177 200 217 231
239 239 239 239 236 232 227 224 225 228 233 241 253 267 282 294 304 314 322 328 332 335 339 344 348 352 356 1 10 21 28 28 30 34 41 50 55 61 85 119 275 265 259 260
240 239 238 237 236 232 230 228 229 232 238 244 254 267 278 289 299 308 317 323 327 330 334 340 346 352 1 9 14 17 21 25 29 33 39 45 46 45 41 24 356 327 307 298
239 239 237 237 236 234 232 232 232 235 241 247 257 266 276 283 291 301 309 316 321 325 326 329 334 341 348 357 4 12 18 23 25 26 28 28 26 20 11 357 340 325 315 311
241 240 239 238 239 239 238 237 237 239 244 250 258 265 272 278 282 290 299 305 312 317 319 320 323 327 334 344 352 358 3 6 8 8 6 4 359 353 346 339 331 323 317 313
244 243 241 240 240 241 242 240 238 240 244 250 257 263 269 273 276 281 287 295 302 308 309 309 310 313 317 324 331 337 342 345 347 348 347 346 343 339 334 329 324 320 317 314
Height
5645 5655 5665 5674 5681 5688 5694 5700 5706 5712 5717 5724 5728 5733 5741 5745 5746 5750 5753 5755 5757 5759 5760 5760 5761 5762 5764 5765 5767 5768 5769 5770 5771 5772 5773 5774 5776 5777 5778 5779 5779 5780 5781 5782
5644 5653 5660 5666 5674 5681 5688 5694 5700 5706 5711 5717 5722 5726 5733 5738 5739 5741 5744 5746 5748 5750 5752 5752 5752 5753 5754 5756 5757 5758 5759 5760 5761 5762 5764 5765 5766 5768 5768 5769 5770 5772 5774 5775
5643 5651 5656 5663 5670 5677 5684 5690 5695 5701 5705 5710 5715 5721 5726 5729 5731 5733 5736 5738 5740 5741 5743 5743 5744 5744 5745 5746 5747 5748 5749 5749 5750 5751 5752 5754 5755 5757 5758 5760 5762 5764 5764 5765
5641 5648 5654 5660 5667 5673 5679 5685 5690 5695 5700 5704 5709 5713 5720 5720 5722 5725 5728 5730 5731 5733 5734 5734 5735 5735 5735 5736 5736 5737 5738 5738 5739 5739 5741 5742 5745 5747 5749 5750 5751 5752 5753 5754
5640 5646 5652 5658 5664 5670 5675 5680 5685 5690 5694 5698 5702 5706 5713 5712 5714 5717 5720 5721 5722 5724 5724 5725 5725 5725 5725 5725 5725 5726 5726 5726 5726 5727 5728 5730 5732 5734 5736 5737 5739 5740 5742 5743
5639 5644 5650 5656 5661 5666 5672 5677 5681 5685 5689 5694 5697 5700 5704 5707 5708 5710 5711 5713 5714 5715 5715 5716 5716 5716 5715 5715 5714 5714 5714 5714 5713 5714 5714 5716 5718 5720 5722 5724 5726 5727 5729 5731
5638 5643 5648 5653 5658 5663 5669 5673 5678 5681 5684 5689 5692 5694 5698 5700 5702 5703 5704 5705 5706 5707 5707 5707 5707 5706 5706 5705 5704 5703 5702 5701 5700 5699 5700 5701 5702 5704 5707 5709 5711 5713 5716 5719
5637 5643 5647 5651 5656 5660 5665 5669 5674 5678 5681 5685 5687 5689 5692 5694 5696 5697 5698 5699 5699 5699 5699 5698 5697 5696 5695 5694 5692 5690 5688 5687 5685 5684 5684 5684 5686 5688 5690 5692 5694 5698 5702 5705
5636 5641 5645 5649 5654 5658 5662 5666 5670 5674 5677 5680 5683 5686 5687 5688 5690 5691 5692 5693 5692 5692 5691 5689 5687 5685 5683 5681 5679 5676 5674 5671 5668 5667 5666 5666 5667 5669 5672 5674 5677 5681 5686 5689
5636 5640 5643 5647 5651 5655 5659 5662 5666 5670 5673 5677 5680 5681 5683 5683 5684 5685 5685 5685 5685 5683 5681 5679 5676 5674 5671 5668 5664 5660 5657 5654 5650 5647 5646 5646 5647 5648 5651 5655 5659 5664 5669 5673
5635 5639 5642 5646 5649 5652 5657 5660 5663 5666 5670 5674 5676 5679 5678 5679 5679 5679 5679 5678 5676 5674 5672 5669 5666 5662 5658 5653 5648 5643 5638 5634 5630 5626 5624 5624 5625 5627 5631 5635 5640 5645 5651 5657
5634 5638 5640 5644 5647 5650 5654 5658 5661 5665 5667 5669 5671 5675 5673 5674 5674 5674 5673 5671 5669 5666 5662 5659 5654 5650 5644 5638 5632 5625 5618 5612 5607 5604 5602 5602 5603 5606 5610 5616 5621 5627 5634 5640
5633 5637 5640 5643 5648 5650 5653 5655 5658 5661 5664 5665 5667 5670 5668 5669 5669 5668 5667 5664 5661 5658 5654 5649 5644 5638 5632 5624 5616 5607 5599 5591 5585 5581 5579 5580 5583 5587 5592 5598 5604 5611 5618 5625
5633 5636 5640 5644 5646 5648 5651 5653 5656 5658 5660 5661 5663 5663 5664 5664 5664 5663 5661 5657 5654 5650 5645 5640 5634 5628 5621 5613 5603 5593 5583 5574 5567 5563 5562 5564 5567 5572 5577 5583 5590 5597 5605 5612
5633 5636 5638 5641 5644 5646 5648 5650 5652 5654 5656 5658 5659 5660 5660 5660 5660 5658 5655 5652 5648 5643 5638 5632 5627 5620 5613 5604 5594 5584 5574 5565 5558 5553 5552 5554 5557 5561 5566 5572 5579 5586 5593 5601
5632 5635 5637 5639 5641 5643 5645 5647 5649 5650 5652 5654 5655 5657 5657 5657 5655 5653 5650 5646 5641 5637 5631 5626 5621 5614 5608 5600 5590 5580 5570 5562 5555 5550 5548 5549 5551 5554 5559 5565 5571 5578 5585 5592
5631 5633 5635 5637 5639 5640 5643 5644 5645 5647 5649 5651 5652 5654 5654 5652 5650 5648 5644 5640 5636 5631 5626 5621 5616 5610 5604 5597 5588 5579 5570 5562 5555 5551 5548 5548 5549 5552 5556 5560 5566 5572 5579 5586
5629 5630 5633 5634 5637 5638 5642 5641 5642 5644 5646 5648 5649 5650 5650 5648 5646 5643 5640 5636 5632 5627 5623 5618 5612 5607 5602 5595 5588 5580 5572 5565 5559 5554 5551 5549 5550 5551 5554 5559 5564 5569 5575 5582
5626 5628 5629 5631 5633 5634 5637 5638 5639 5641 5643 5644 5645 5646 5645 5644 5642 5639 5636 5632 5628 5624 5620 5615 5610 5606 5601 5595 5589 5583 5576 5569 5563 5558 5555 5554 5553 5554 5556 5560 5564 5569 5575 5580
5622 5624 5626 5627 5629 5631 5634 5634 5635 5639 5639 5641 5641 5641 5641 5640 5638 5636 5633 5629 5625 5622 5617 5613 5609 5605 5600 5596 5591 5585 5580 5574 5569 5565 5561 5560 5559 5560 5562 5565 5568 5572 5577 5581
5618 5619 5621 5623 5625 5627 5629 5631 5633 5636 5637 5637 5637 5637 5637 5636 5635 5633 5629 5626 5623 5619 5616 5612 5608 5604 5600 5597 5592 5588 5584 5580 5576 5572 5569 5568 5567 5567 5568 5570 5573 5575 5578 5581
5613 5615 5617 5619 5621 5625 5625 5627 5629 5631 5632 5633 5633 5633 5633 5632 5631 5629 5626 5624 5620 5617 5614 5611 5608 5604 5601 5597 5594 5591 5587 5584 5581 5578 5575 5574 5573 5573 5574 5575 5576 5577 5579 5581
5609 5611 5613 5616 5619 5620 5621 5622 5625 5626 5628 5629 5629 5629 5629 5628 5627 5625 5623 5621 5618 5616 5613 5610 5607 5604 5602 5598 5595 5593 5590 5587 5584 5582 5580 5578 5578 5577 5577 5577 5578 5578 5579 5580
5604 5606 5608 5611 5612 5614 5616 5618 5620 5622 5623 5624 5625 5625 5625 5624 5623 5622 5620 5618 5616 5614 5611 5609 5607 5604 5602 5599 5596 5594 5591 5589 5587 5585 5583 5581 5580 5579 5579 5579 5578 5578 5578 5577
5599 5601 5603 5606 5608 5609 5612 5614 5616 5617 5618 5620 5620 5621 5620 5620 5619 5618 5617 5615 5614 5612 5609 5607 5605 5603 5601 5599 5597 5594 5592 5590 5588 5586 5584 5583 5581 5580 5579 5578 5577 5576 5575 5573
5593 5596 5599 5601 5603 5605 5606 5607 5609 5611 5613 5614 5615 5615 5615 5615 5615 5614 5613 5612 5610 5609 5607 5605 5603 5601 5600 5598 5596 5594 5592 5590 5588 5586 5584 5582 5580 5579 5578 5576 5575 5573 5571 5569